[[{"header":{"parameterUnit":"m.s-1","parameterCategory":1,"la1":30.2991,"la2":30.254,"lo1":-89.0895,"lo2":-89.0444,"dy":0.0017,"dx":0.0017,"nx":28,"ny":28,"refTime":"2025-12-11T03:00:00:Z","depth":0,"parameterNumber":2,"parameterNumberName":"U-component_of_WINDS"},"data":[0,0,0,0,0,0,0,0,0,0,0,0,0,0,0,0,0,0,0,0,0,0,0,0,0,0,0,0,0,0,0,0,0,0,0,0,0,0,0,0,0,0,0,0,0,0,0,0,0,0,0,0,0,0,0,0,0,0,-0.7811,-0.781,0,-0.7745,-0.7745,-0.7744,-0.7703,-0.7703,-0.7702,-0.7702,-0.7638,-0.7636,-0.7635,0,0,0,0,0,0,0,0,0,0,0,0,0,-0.7905,-0.7903,-0.7811,-0.781,-0.781,-0.7745,-0.7744,-0.7744,-0.7703,-0.7703,-0.7702,-0.7702,-0.7638,-0.7636,-0.7635,0,0,0,0,0,0,0,0,0,0,0,0,0,-0.7854,-0.7903,-0.7811,-0.7781,-0.7778,-0.7746,-0.7744,-0.7743,-0.7703,-0.7703,-0.7702,-0.7702,-0.7639,-0.7637,-0.7634,-0.7627,0,0,-0.7627,-0.7627,0,0,0,0,0,0,0,0,-0.7857,-0.7851,-0.7787,-0.7783,-0.778,-0.7732,-0.7754,-0.7705,-0.7703,-0.7732,-0.7702,-0.7702,-0.7669,-0.7665,-0.7653,-0.7624,-0.7622,-0.7627,-0.7626,-0.7625,-0.7624,0,0,0,0,0,0,0,-0.7861,-0.7854,-0.7785,-0.7786,-0.7781,-0.7772,-0.7765,-0.7744,-0.7703,-0.7729,-0.7726,-0.7718,-0.7668,-0.7655,-0.7651,-0.7621,-0.7627,-0.7625,-0.7624,-0.7623,-0.7583,-0.7583,0,0,0,0,0,0,-0.7869,-0.7857,-0.7787,-0.7783,-0.7818,-0.7771,-0.7762,-0.7748,-0.7703,-0.7696,-0.7719,-0.7717,-0.7659,-0.7654,-0.7649,-0.7637,-0.7625,-0.7623,-0.7622,-0.7582,-0.7583,-0.7583,0,0,0,0,0,0,-0.7871,-0.7863,-0.779,-0.7819,-0.7809,-0.777,-0.7753,-0.7746,-0.7734,-0.7696,-0.7689,-0.7714,-0.7659,-0.7652,-0.7633,-0.7634,-0.7622,-0.762,-0.7582,-0.7582,-0.7583,-0.7614,0,0,0,0,0,0,-0.7874,-0.7864,-0.786,-0.7819,-0.7808,-0.7774,-0.7753,-0.7745,-0.773,-0.7727,-0.7689,-0.7682,-0.7658,-0.7636,-0.7631,-0.7631,-0.7618,-0.7582,-0.7582,-0.7583,-0.7612,-0.7615,-0.7618,0,0,0,0,0,-0.7877,-0.7872,-0.786,-0.7852,-0.7802,-0.7774,-0.7768,-0.7739,-0.773,-0.7727,-0.7702,-0.7684,-0.7635,-0.7635,-0.7628,-0.7628,-0.7581,-0.7582,-0.7583,-0.7611,-0.7615,-0.7617,0,0,0,0,0,0,-0.7916,-0.7866,-0.7852,-0.7834,-0.7808,-0.7767,-0.7761,-0.7743,-0.7721,-0.7719,-0.7685,-0.7677,-0.7661,-0.7643,-0.7643,-0.7618,-0.7606,-0.7606,-0.763,-0.7633,-0.7636,-0.764,-0.7616,0,0,0,0,0,-0.7922,-0.7902,-0.7861,-0.7849,-0.7836,-0.7801,-0.7788,-0.7768,-0.7741,-0.773,-0.7704,-0.7679,-0.7658,-0.7645,-0.7624,-0.761,-0.7601,-0.7607,-0.7609,-0.7612,-0.7611,-0.7602,-0.7604,-0.7585,-0.7585,-0.7585,0,0,-0.7935,-0.7905,-0.7895,-0.7856,-0.7833,-0.7814,-0.7793,-0.7774,-0.776,-0.7728,-0.7707,-0.7687,-0.7657,-0.764,-0.7632,-0.7625,-0.7614,-0.7612,-0.7615,-0.7612,-0.7603,-0.7604,-0.7606,-0.7585,-0.7585,-0.7585,0,0,-0.7948,-0.7924,-0.791,-0.7889,-0.7855,-0.7831,-0.7829,-0.779,-0.7775,-0.7754,-0.7729,-0.7713,-0.7678,-0.7657,-0.7642,-0.7647,-0.763,-0.7642,-0.7655,-0.7646,-0.7648,-0.7649,-0.765,-0.7651,-0.7642,-0.7642,-0.7642,0,-0.7968,-0.7937,-0.7906,-0.7888,-0.7872,-0.7841,-0.7827,-0.7808,-0.777,-0.7759,-0.7752,-0.7707,-0.7685,-0.7662,-0.7663,-0.7653,-0.7648,-0.7645,-0.765,-0.7651,-0.7651,-0.7652,-0.7652,-0.7643,-0.7643,-0.7643,-0.7643,0,-0.7964,-0.7943,-0.7937,-0.7898,-0.7881,-0.7866,-0.7833,-0.782,-0.7802,-0.778,-0.7758,-0.7731,-0.7703,-0.7697,-0.7679,-0.7672,-0.7668,-0.7656,-0.7643,-0.7655,-0.7655,-0.7655,-0.7645,-0.7645,-0.7644,-0.7644,0,0,-0.7998,-0.7943,-0.7941,-0.7923,-0.7884,-0.7868,-0.7851,-0.7823,-0.7812,-0.7787,-0.7772,-0.7743,-0.7731,-0.7714,-0.7695,-0.7687,-0.7693,-0.7676,-0.7675,-0.7679,-0.7682,-0.769,-0.7691,-0.7681,-0.7681,-0.7681,-0.7684,0,-0.8005,-0.7971,-0.7943,-0.7921,-0.7901,-0.7872,-0.7858,-0.7833,-0.7812,-0.7793,-0.7771,-0.775,-0.7737,-0.7726,-0.7718,-0.7694,-0.7692,-0.7693,-0.7667,-0.7667,-0.7674,-0.7691,-0.77,-0.7704,-0.7684,-0.7684,-0.7684,0,-0.8007,-0.7982,-0.7957,-0.7919,-0.791,-0.7897,-0.7868,-0.7851,-0.7822,-0.7808,-0.7789,-0.7768,-0.775,-0.774,-0.7715,-0.7716,-0.7704,-0.7691,-0.7691,-0.7686,-0.7675,-0.7686,-0.7704,-0.7705,-0.7684,-0.7684,-0.7684,0,-0.8033,-0.7993,-0.7973,-0.7959,-0.7914,-0.7906,-0.7887,-0.7858,-0.7843,-0.7819,-0.7808,-0.7783,-0.7769,-0.775,-0.7724,-0.7719,-0.7701,-0.7689,-0.7689,-0.7689,-0.7685,-0.7685,-0.7701,-0.768,-0.768,-0.768,-0.768,0,-0.8042,-0.8028,-0.7984,-0.7971,-0.7955,-0.7923,-0.7908,-0.7887,-0.7861,-0.7845,-0.7819,-0.7805,-0.7771,-0.7753,-0.7732,-0.7714,-0.7708,-0.7696,-0.7691,-0.7698,-0.7699,-0.7688,-0.7687,-0.768,-0.768,-0.768,-0.768,0,-0.8068,-0.8038,-0.8013,-0.7973,-0.7962,-0.7952,-0.7918,-0.7905,-0.7883,-0.7863,-0.7856,-0.7822,-0.7799,-0.7771,-0.7739,-0.7725,-0.7709,-0.7702,-0.7718,-0.7715,-0.7715,-0.7715,-0.7723,-0.7722,-0.7704,-0.7704,-0.7704,0,-0.8075,-0.8063,-0.8021,-0.8007,-0.7989,-0.7968,-0.7951,-0.792,-0.7905,-0.7871,-0.7863,-0.7837,-0.7815,-0.7781,-0.7753,-0.7729,-0.772,-0.7725,-0.7716,-0.7724,-0.7719,-0.7719,-0.7718,-0.7726,-0.7727,-0.7727,-0.7727,0,-0.809,-0.8076,-0.8052,-0.8024,-0.8005,-0.7981,-0.7957,-0.7948,-0.7912,-0.7896,-0.7871,-0.7854,-0.7821,-0.7797,-0.7769,-0.7751,-0.7734,-0.773,-0.7729,-0.7735,-0.7745,-0.7738,-0.7723,-0.773,-0.773,-0.773,-0.7729,-0.7729,-0.8106,-0.8093,-0.8061,-0.8036,-0.8014,-0.7992,-0.7978,-0.7953,-0.7932,-0.7901,-0.7885,-0.7861,-0.7833,-0.7794,-0.7777,-0.7758,-0.7752,-0.775,-0.7749,-0.7749,-0.775,-0.7749,-0.7754,-0.7753,-0.7753,-0.7753,-0.7753,0,-0.8119,-0.8096,-0.8074,-0.8039,-0.802,-0.8004,-0.7976,-0.7961,-0.7939,-0.7914,-0.7893,-0.7865,-0.7841,-0.7812,-0.7787,-0.7777,-0.7769,-0.7772,-0.7771,-0.7768,-0.7758,-0.7761,-0.7779,-0.7779,-0.7779,-0.7779,-0.7779,-0.7779,-0.8123,-0.81,-0.8082,-0.8049,-0.8028,-0.8002,-0.7988,-0.7967,-0.7947,-0.7916,-0.7896,-0.7877,-0.785,-0.7823,-0.78,-0.7793,-0.7784,-0.7789,-0.7779,-0.7771,-0.7768,-0.7766,-0.7769,-0.7788,-0.7788,-0.779,-0.779,-0.779]},{"header":{"parameterUnit":"m.s-1","parameterCategory":1,"la1":30.2991,"la2":30.254,"lo1":-89.0895,"lo2":-89.0444,"dy":0.0017,"dx":0.0017,"nx":28,"ny":28,"refTime":"2025-12-11T03:00:00:Z","depth":0,"parameterNumber":3,"parameterNumberName":"V-component_of_WINDS"},"data":[0,0,0,0,0,0,0,0,0,0,0,0,0,0,0,0,0,0,0,0,0,0,0,0,0,0,0,0,0,0,0,0,0,0,0,0,0,0,0,0,0,0,0,0,0,0,0,0,0,0,0,0,0,0,0,0,0,0,1.7031,1.7031,0,1.7058,1.7058,1.7059,1.7068,1.7068,1.7068,1.7068,1.7093,1.7093,1.7094,0,0,0,0,0,0,0,0,0,0,0,0,0,1.6986,1.6987,1.7031,1.7031,1.7032,1.7058,1.7058,1.7059,1.7068,1.7068,1.7068,1.7068,1.7092,1.7093,1.7094,0,0,0,0,0,0,0,0,0,0,0,0,0,1.7008,1.6987,1.7031,1.704,1.7041,1.7058,1.7058,1.7059,1.7068,1.7068,1.7068,1.7068,1.7092,1.7093,1.7094,1.7104,0,0,1.7098,1.7098,0,0,0,0,0,0,0,0,1.7007,1.701,1.7038,1.7039,1.704,1.706,1.7052,1.7074,1.7068,1.7057,1.7068,1.7067,1.7082,1.7083,1.7089,1.7105,1.7106,1.7098,1.7098,1.7099,1.7099,0,0,0,0,0,0,0,1.7005,1.7009,1.7042,1.7038,1.704,1.7042,1.7045,1.7056,1.707,1.7058,1.7059,1.7062,1.7082,1.7088,1.7089,1.7107,1.7098,1.7099,1.7099,1.71,1.7134,1.7134,0,0,0,0,0,0,1.7003,1.7007,1.7041,1.7042,1.7023,1.7042,1.7046,1.7053,1.707,1.7072,1.7062,1.7063,1.7086,1.7088,1.709,1.7104,1.7099,1.71,1.7101,1.7134,1.7134,1.7134,0,0,0,0,0,0,1.7002,1.7006,1.704,1.7025,1.703,1.7043,1.7052,1.7054,1.706,1.7073,1.7075,1.7066,1.7086,1.7089,1.7101,1.7105,1.7101,1.7102,1.7134,1.7134,1.7134,1.7131,0,0,0,0,0,0,1.7,1.7005,1.7009,1.7025,1.703,1.7051,1.7052,1.7055,1.7062,1.7063,1.7077,1.7079,1.7086,1.7099,1.7102,1.7107,1.7102,1.7133,1.7134,1.7134,1.7131,1.7131,1.7132,0,0,0,0,0,1.6999,1.7007,1.701,1.7014,1.7036,1.7051,1.7054,1.7062,1.7062,1.7066,1.7075,1.7078,1.7104,1.7101,1.7104,1.7109,1.7133,1.7134,1.7134,1.7131,1.7131,1.7132,0,0,0,0,0,0,1.6989,1.7009,1.7012,1.7026,1.7037,1.7052,1.7058,1.7062,1.7073,1.7073,1.7083,1.7086,1.7098,1.7104,1.71,1.712,1.7119,1.712,1.7115,1.7116,1.7116,1.7114,1.7103,0,0,0,0,0,1.6989,1.7,1.7016,1.7026,1.7032,1.7044,1.705,1.7057,1.7068,1.7072,1.7082,1.7092,1.7103,1.7109,1.712,1.7132,1.7135,1.7137,1.7137,1.7137,1.7138,1.7146,1.7147,1.7136,1.7136,1.7136,0,0,1.6988,1.7,1.7006,1.7025,1.7034,1.7045,1.7048,1.7059,1.7067,1.7074,1.7087,1.7094,1.7106,1.7119,1.7125,1.7125,1.7142,1.7138,1.7138,1.7139,1.7147,1.7148,1.7149,1.7136,1.7136,1.7136,0,0,1.6992,1.7002,1.7012,1.7022,1.7037,1.7045,1.7047,1.7063,1.7068,1.7082,1.7088,1.7097,1.7115,1.7124,1.713,1.7139,1.7143,1.7142,1.7144,1.7152,1.7153,1.7154,1.7158,1.7159,1.7143,1.7143,1.7143,0,1.6989,1.7006,1.7017,1.7028,1.7036,1.7045,1.7055,1.7064,1.708,1.7086,1.7085,1.7109,1.7117,1.7133,1.7135,1.714,1.7143,1.7141,1.7152,1.7153,1.7154,1.7158,1.7159,1.7143,1.7143,1.7143,1.7143,0,1.7002,1.7014,1.702,1.7038,1.7047,1.7058,1.707,1.7077,1.7083,1.7091,1.7105,1.7116,1.7129,1.7133,1.7138,1.7149,1.7149,1.715,1.715,1.7155,1.7159,1.716,1.7143,1.7143,1.7143,1.7143,0,0,1.7,1.7025,1.7027,1.7036,1.7053,1.7062,1.7074,1.7088,1.7095,1.7106,1.7116,1.7131,1.7133,1.7141,1.7147,1.7153,1.7161,1.7154,1.7155,1.7156,1.7176,1.7175,1.7177,1.7164,1.7164,1.7164,1.7175,0,1.7007,1.7029,1.7039,1.7056,1.7068,1.7076,1.7086,1.7098,1.7106,1.7117,1.7125,1.7137,1.7138,1.7143,1.715,1.7159,1.7165,1.7158,1.7173,1.7173,1.717,1.7179,1.7178,1.7188,1.7177,1.7177,1.7177,0,1.7017,1.7031,1.705,1.7067,1.7072,1.7081,1.7096,1.7106,1.712,1.7125,1.7135,1.7141,1.7153,1.7151,1.7168,1.7163,1.717,1.7175,1.7176,1.7178,1.7176,1.7182,1.7191,1.7193,1.7179,1.7179,1.7179,0,1.7015,1.7038,1.7053,1.706,1.708,1.7086,1.7095,1.7108,1.7117,1.7129,1.7135,1.7148,1.7155,1.7165,1.7175,1.7172,1.7191,1.719,1.7196,1.7196,1.72,1.7199,1.7211,1.7203,1.7203,1.7203,1.7203,0,1.7022,1.7034,1.7052,1.7061,1.7074,1.7086,1.7098,1.7107,1.712,1.713,1.7138,1.7147,1.7159,1.717,1.7177,1.7191,1.7194,1.7198,1.72,1.7198,1.7198,1.7203,1.7203,1.7203,1.7203,1.7203,1.7203,0,1.7022,1.7035,1.7052,1.7071,1.7076,1.7084,1.71,1.7109,1.7118,1.7132,1.7135,1.7149,1.7163,1.7173,1.719,1.7195,1.721,1.7211,1.7206,1.7207,1.7213,1.7212,1.7228,1.7231,1.7221,1.7221,1.7221,0,1.7026,1.7035,1.7056,1.7064,1.7073,1.7086,1.7096,1.7108,1.7117,1.7134,1.7141,1.7155,1.7167,1.7189,1.72,1.7213,1.7216,1.722,1.7217,1.7216,1.7217,1.7216,1.7218,1.7221,1.7221,1.7221,1.7221,0,1.7032,1.7038,1.7052,1.7068,1.708,1.7092,1.7105,1.7112,1.7126,1.7136,1.7151,1.716,1.7179,1.7193,1.7208,1.7216,1.7221,1.7222,1.7224,1.7222,1.7219,1.7222,1.7208,1.7221,1.7221,1.7221,1.7221,1.7221,1.7034,1.7044,1.706,1.7075,1.7087,1.7099,1.7109,1.712,1.7133,1.7151,1.7156,1.7172,1.7186,1.7207,1.7215,1.7227,1.7227,1.723,1.7231,1.7232,1.7232,1.7217,1.7229,1.7229,1.7229,1.7229,1.7229,0,1.7041,1.7053,1.7067,1.7086,1.7098,1.7103,1.7118,1.7128,1.7142,1.7155,1.7168,1.7185,1.7199,1.7212,1.7227,1.7234,1.7237,1.7238,1.7237,1.7239,1.7231,1.7228,1.7235,1.7235,1.7235,1.7235,1.7235,1.7235,1.7046,1.7063,1.7071,1.7094,1.7105,1.7121,1.713,1.7141,1.7152,1.7172,1.7185,1.7193,1.7207,1.7223,1.7236,1.7239,1.7245,1.7245,1.7249,1.7241,1.724,1.7239,1.7237,1.7246,1.7246,1.7257,1.7257,1.7257]}]]